This is the latest recevied weather packets stored in our database for station/object KO4LCK. If no packets are shown the sender has not sent any weather packets the latest 1 day(s).
| Time | Temp. | Humidity | Pressure | Rain* | Wind** | Luminosity | Snow |
|---|---|---|---|---|---|---|---|
| 1777983919 | 11.67° C | 89% | 1016 hPa | 0 mm | 0 m/s | 50 W/m² | - |
| 1777983616 | 11.67° C | 89% | 1015.9 hPa | 0 mm | 0 m/s | 51 W/m² | - |
| 1777983312 | 11.67° C | 89% | 1016 hPa | 0 mm | 0 m/s | 42 W/m² | - |
| 1777983015 | 11.67° C | 89% | 1016 hPa | 0 mm | 0 m/s | 31 W/m² | - |
| 1777982706 | 11.67° C | 89% | 1015.8 hPa | 0 mm | 0 m/s | 27 W/m² | - |
| 1777982405 | 11.67° C | 89% | 1015.8 hPa | 0 mm | 0 m/s | 32 W/m² | - |
| 1777982101 | 11.11° C | 90% | 1015.8 hPa | 0 mm | 0 m/s | 43 W/m² | - |
| 1777981799 | 11.11° C | 91% | 1015.7 hPa | 0 mm | 0 m/s | 48 W/m² | - |
| 1777981495 | 11.11° C | 91% | 1015.7 hPa | 0 mm | 0 m/s | 44 W/m² | - |
| 1777981192 | 10.56° C | 92% | 1015.5 hPa | 0 mm | 0 m/s | 41 W/m² | - |
| 1777980888 | 10.56° C | 92% | 1015.5 hPa | 0 mm | 0 m/s | 34 W/m² | - |
| 1777980584 | 10° C | 93% | 1015.4 hPa | 0 mm | 0 m/s | 30 W/m² | - |
| 1777980281 | 10° C | 93% | 1015.4 hPa | 0 mm | 0 m/s | 27 W/m² | - |
| 1777979978 | 10° C | 93% | 1015.1 hPa | 0 mm | 0 m/s | 23 W/m² | - |
| 1777979672 | 9.44° C | 93% | 1015 hPa | 0 mm | 0 m/s | 20 W/m² | - |
| 1777979368 | 9.44° C | 92% | 1015 hPa | 0 mm | 0 m/s | 18 W/m² | - |
| 1777979065 | 9.44° C | 92% | 1015 hPa | 0 mm | 0 m/s | 13 W/m² | - |
| 1777978762 | 8.89° C | 92% | 1014.8 hPa | 0 mm | 0 m/s | 9 W/m² | - |
| 1777978459 | 8.89° C | 92% | 1014.9 hPa | 0 mm | 0 m/s | 6 W/m² | - |
| 1777978155 | 8.89° C | 92% | 1014.8 hPa | 0 mm | 0 m/s | 3 W/m² | - |
| 1777977852 | 8.89° C | 92% | 1014.9 hPa | 0 mm | 0 m/s | 1 W/m² | - |
| 1777977548 | 8.89° C | 91% | 1014.8 hPa | 0 mm | 0 m/s | 1 W/m² | - |
| 1777977246 | 8.89° C | 92% | 1015 hPa | 0 mm | 0 m/s | 0 W/m² | - |
| 1777976943 | 8.89° C | 91% | 1015.1 hPa | 0 mm | 0 m/s | 0 W/m² | - |
| 1777976640 | 8.89° C | 91% | 1015 hPa | 0 mm | 0 m/s | 0 W/m² | - |
* Rain latest hour (hover to see other rain measurements)
** Current wind speed in m/s (hover to see current wind gust speed)